Location: Newark
(63.1158°N, 8.1461°E)
Time: 20:25:40
(UTC+00:00)

Envisat - Pass Details

Date: 15 December 2019
Orbit: 764 x 766 km, 98.1° (Epoch: 21 January)

Event Time Altitude Azimuth Distance (km) Brightness Sun altitude
Rises 17:54:44 0° 190° (S) 3,229 6.4 -24.2°
Reaches altitude 10° 17:57:12 10° 199° (SSW) 2,307 5.7 -24.5°
Maximum altitude 18:01:53 36° 266° (W) 1,203 4.5 -25.1°
Drops below altitude 10° 18:06:36 10° 333° (NNW) 2,320 5.8 -25.6°
Sets 18:09:06 0° 342° (NNW) 3,251 6.5 -25.9°
